User: anonymous   Login
Location: Unspecified
(0.0000°N, 0.0000°E)
Time: 09:36:07
(UTC+01:00)
Language:

ARIANE 44L R/B - Orbit

View from above orbital plane
View from above orbital plane
View from above satellite
View from above satellite

Ground track
Ground track

The orbit data is extracted from the following two-line orbital elements,

1 26901U 01039B   14325.43035405  .00004728  00000-0  18832-2 0  1582
2 26901 007.1887 250.9563 6961372 119.9663 027.7168 02.67473853117836
Epoch (UTC): 21 November 2014 10:19:42
Eccentricity: 0.6961372
inclination: 7.1887°
perigee height: 283 km
apogee height: 30804 km
right ascension of ascending node: 250.9563°
argument of perigee: 119.9663°
revolutions per day: 2.67473853
mean anomaly at epoch: 27.7168°
orbit number at epoch: 11783

The dashed part of the orbit path shows where the satellite is in the earth's shadow,  

DLR